Regional Weather Roundup
Issued by NWS Little Rock, AR

Home | Current Version | Previous Version | Text Only | Print | Product List | Glossary Off
Versions: 1 2 3 4 5 6 7 8 9 10 11 12 13 14 15 16 17 18 19 20 21 22 23 24 25 26 27 28 29 30 31 32 33 34 35 36 37 38 39 40 41 42 43 44 45 46 47 48 49 50

000
ASUS44 KLZK 281605
RWRLZK

WEATHER ROUNDUP FOR ARKANSAS
NATIONAL WEATHER SERVICE LITTLE ROCK AR
1100 AM CDT FRI AUG 28 2015

NOTE: "FAIR" INDICATES FEW OR NO CLOUDS BELOW 12,000 FEET WITH NO
SIGNIFICANT WEATHER AND/OR OBSTRUCTIONS TO VISIBILITY.

ARZ001-003-010-029-281700-
NORTHWEST ARKANSAS

CITY           SKY/WX    TMP DP  RH WIND       PRES   REMARKS
FAYETTEVILLE   MOSUNNY   76  64  66 S13       30.09R
FORT SMITH     MOSUNNY   75  61  61 E5        30.08R
BENTONVILLE    MOSUNNY   75  61  60 S8        30.09S
ROGERS         MOSUNNY   74  63  68 SE10      30.09S
SILOAM SPGS    MOSUNNY   75  61  60 S12       30.06S
HIGHFILL       MOSUNNY   75  64  68 S9        30.08R
SPRINGDALE     MOSUNNY   75  63  64 S8        30.11R
$$

ARZ004-005-016-281700-
NORTH CENTRAL ARKANSAS

CITY           SKY/WX    TMP DP  RH WIND       PRES   REMARKS
BATESVILLE     MOSUNNY   77  63  61 SE7       30.11S
FLIPPIN        SUNNY     73  59  60 SE8       30.09F
MTN HOME       SUNNY     74  60  61 S8        30.11S
$$

ARZ040-041-281700-
WEST CENTRAL ARKANSAS

CITY           SKY/WX    TMP DP  RH WIND       PRES   REMARKS
MENA           SUNNY     77  64  65 E3        30.11F
MOUNT IDA      SUNNY     77  62  59 VRB3      30.09R
$$

ARZ009-017-025-026-028-281700-
NORTHEAST ARKANSAS

CITY           SKY/WX    TMP DP  RH WIND       PRES   REMARKS
JONESBORO      SUNNY     76  64  66 E6        30.10S
NEWPORT        SUNNY     78  63  60 CALM      30.12R
WALNUT RIDGE   SUNNY     75  63  64 CALM      30.11S
BLYTHEVILLE    SUNNY     79  66  64 VRB3      30.11R
$$

ARZ022-023-033-042-044-281700-
CENTRAL ARKANSAS

CITY           SKY/WX    TMP DP  RH WIND       PRES   REMARKS
LITTLE ROCK    MOSUNNY   80  56  43 E6        30.10R
N LITTLE ROCK  MOSUNNY   78  59  51 SE5       30.10R
JACKSONVILLE   SUNNY     79  58  48 VRB3      30.09R
SEARCY         SUNNY     80  60  50 E5        30.12R
HOT SPRINGS    SUNNY     77  59  53 CALM      30.10S
RUSSELLVILLE   SUNNY     77  62  59 CALM      30.10R
$$

ARZ036-281700-
EAST ARKANSAS

CITY           SKY/WX    TMP DP  RH WIND       PRES   REMARKS
WEST MEMPHIS   SUNNY     82  66  58 E5        30.08S
$$

ARZ050-053-066-070-073-281700-
SOUTHWEST ARKANSAS

CITY           SKY/WX    TMP DP  RH WIND       PRES   REMARKS
ARKADELPHIA    FAIR      81  62  52 CALM      30.09S
CAMDEN         SUNNY     81  59  47 CALM      30.08S
TEXARKANA      SUNNY     80  60  50 SE7       30.07S
EL DORADO      SUNNY     80  58  46 SE7       30.08R
DE QUEEN       SUNNY     78  64  61 VRB5      30.07S
$$

ARZ056-057-069-281700-
SOUTHEAST ARKANSAS

CITY           SKY/WX    TMP DP  RH WIND       PRES   REMARKS
PINE BLUFF     SUNNY     79  58  48 VRB6      30.09R
STUTTGART      SUNNY     79  61  53 NE3       30.09R
MONTICELLO     SUNNY     79  61  53 E3        30.08S

$$





USA.gov is the U.S. government's official web portal to all federal, state and local government web resources and services.